Home   Weather   Bamako   Past weeks

Flag for Mali Past Weather in Bamako, Mali — Yesterday and Last 2 Weeks

Now
81 °F

Passing clouds.


Feels Like: 87 °F
Forecast: N/A
Wind: No wind

Location: Bamako / Senou

Current Time: Jul 26, 2017 at 8:54:46 pm

Latest Report: Jul 26, 2017 at 8:30 pm


Visibility: N/A

Pressure: 29.92 "Hg

Humidity: 89%

Dew Point: 77 °F

Location of BamakoLocation

Past Weather in Bamako — Graph

°F

Bamako Temperature Yesterday

Maximum temperature yesterday: 93 °F (at 3:00 pm)
Minimum temperature yesterday: 73 °F (at 5:00 am)
Average temperature yesterday: 82 °F

High & Low Weather Summary for the Past Weeks

 TemperatureHumidityPressure
High93 °F (Jul 25, 3:00 pm)100% (Jul 12, 3:00 am)30.09 "Hg (Jul 12, 3:00 am)
Low70 °F (Jul 12, 3:00 am)14% (Jul 19, 6:00 pm)29.89 "Hg (Jul 17, 4:30 pm)
Average79 °F83%29.99 "Hg
* Reported Jul 11 7:00 pm — Jul 26 7:30 pm, Bamako. Weather by CustomWeather, © 2017

Note: Actual official high and low records may vary slightly from our data, if they occured in-between our weather recording intervals... More about our weather records

Advertising

Bamako Weather History for the Previous 24 Hours

Scroll right to see more
 ConditionsComfort  
Time TempWeatherWind HumidityBarometerVisibility
7:30 pm
Wed, Jul 26
82 °FPassing clouds.3 mph79%29.89 "HgN/A
7:00 pm82 °FPassing clouds.3 mph79%29.89 "HgN/A
6:30 pm84 °FPassing clouds.5 mph74%29.89 "HgN/A
6:00 pm84 °FPassing clouds.7 mph74%29.89 "HgN/A
5:30 pm86 °FPassing clouds.7 mph70%29.89 "HgN/A
5:00 pm86 °FPassing clouds.9 mph70%29.89 "HgN/A
4:30 pm86 °FPassing clouds.9 mph70%29.89 "HgN/A
4:00 pm84 °FPassing clouds.9 mph74%29.89 "HgN/A
3:30 pm84 °FPassing clouds.9 mph79%29.89 "HgN/A
3:00 pm82 °FPassing clouds.9 mph84%29.89 "HgN/A
2:30 pm82 °FPassing clouds.10 mph74%29.92 "HgN/A
2:00 pm82 °FPassing clouds.7 mph74%29.92 "HgN/A
1:30 pm82 °FPassing clouds.No wind74%29.98 "HgN/A
1:00 pm81 °FPassing clouds.2 mph79%29.98 "HgN/A
12:30 pm79 °FPassing clouds.2 mph84%30.01 "HgN/A
12:00 pm75 °FPassing clouds.2 mph94%30.01 "HgN/A
11:30 am73 °FPassing clouds.5 mph100%30.01 "HgN/A
11:00 am72 °FLight rain. Scattered clouds.8 mph100%30.04 "Hg5 mi
10:30 am70 °FRain. Partly sunny.16 mph100%30.07 "Hg2 mi
10:00 am75 °FLight rain. Partly sunny.18 mph100%30.04 "HgN/A
9:30 am79 °FPartly sunny.13 mph89%30.04 "HgN/A
9:00 am79 °FScattered clouds.3 mph89%30.04 "HgN/A
8:30 am79 °FPassing clouds.3 mph79%29.98 "HgN/A
8:00 am77 °FPassing clouds.6 mph83%29.98 "HgN/A
7:30 am77 °FPassing clouds.5 mph83%29.98 "HgN/A
7:00 am75 °FPassing clouds.No wind89%29.95 "HgN/A
6:30 am75 °FPassing clouds.3 mph83%29.95 "HgN/A
6:00 am77 °FPassing clouds.8 mph79%29.95 "HgN/A
5:30 am77 °FPassing clouds.6 mph79%29.92 "HgN/A
5:00 am77 °FPassing clouds.7 mph79%29.92 "HgN/A
4:30 am77 °FPassing clouds.9 mph83%29.92 "HgN/A
4:00 am77 °FPassing clouds.8 mph83%29.92 "HgN/A
3:30 am77 °FPassing clouds.7 mph83%29.92 "HgN/A
3:00 am77 °FPassing clouds.9 mph83%29.92 "HgN/A
2:30 am79 °FPassing clouds.9 mph79%29.95 "HgN/A
2:00 am79 °FPassing clouds.7 mph79%29.95 "HgN/A
1:30 am79 °FPassing clouds.9 mph84%29.95 "HgN/A
1:00 am79 °FPassing clouds.9 mph84%29.98 "HgN/A
12:30 am81 °FPassing clouds.9 mph79%29.98 "HgN/A
12:00 am81 °FPassing clouds.9 mph79%29.95 "HgN/A
11:30 pm
Tue, Jul 25
81 °FPassing clouds.9 mph79%29.95 "HgN/A
11:00 pm82 °FPassing clouds.9 mph74%29.95 "HgN/A
10:30 pm81 °FPassing clouds.7 mph79%29.95 "HgN/A
10:00 pm82 °FThunderstorms. Passing clouds.7 mph74%29.95 "HgN/A
9:30 pm82 °FThunderstorms. Passing clouds.7 mph74%29.95 "HgN/A
9:00 pm84 °FThunderstorms. Passing clouds.7 mph70%29.95 "HgN/A
8:30 pm84 °FThunderstorms. Passing clouds.7 mph70%29.92 "HgN/A
8:00 pm84 °FThunderstorms. Passing clouds.7 mph70%29.92 "HgN/A
Weather by CustomWeather, © 2017

See weather overviewHow to use our weather pages